Temperature
22 23 23 23 23 23 23 23 22 22 22 22 22 21 21 20 20 20 19 19 20 19 19 18 18 17 17 17 17 17 17 16 16 16 16 16 16 15 15 15 15 15 15 15
23 23 23 23 23 22 22 22 22 22 22 22 22 22 22 21 20 20 20 20 20 19 19 18 18 18 18 17 17 17 17 16 16 16 16 16 16 15 15 15 15 15 15 15
23 22 22 22 22 22 22 22 22 22 21 22 22 22 22 21 20 20 19 20 20 19 19 19 18 18 18 17 17 17 17 16 16 16 16 16 16 15 15 15 15 15 15 15
22 22 22 22 22 22 22 22 22 21 21 22 22 22 22 22 21 21 20 20 20 19 19 19 18 18 18 17 17 17 17 16 16 16 16 16 16 16 15 15 15 15 15 15
22 22 22 22 22 22 22 22 22 21 22 22 22 22 23 22 21 22 21 20 20 19 19 18 18 18 18 17 17 17 17 16 16 16 16 16 16 15 15 15 15 15 15 15
22 22 22 22 22 21 21 21 21 21 22 21 22 22 22 23 22 22 22 21 20 19 19 18 18 18 17 17 17 17 17 16 16 16 16 16 15 15 15 15 15 15 15 15
22 22 22 21 21 21 22 22 21 21 21 22 22 22 22 23 23 23 22 21 20 20 19 18 18 18 17 17 17 17 17 17 16 16 16 16 16 16 15 15 15 15 15 15
22 22 22 22 22 22 22 22 21 21 21 22 22 22 23 23 22 22 21 21 20 20 19 19 18 18 17 17 17 17 17 17 16 16 16 16 16 16 16 15 15 15 15 15
22 22 22 21 22 22 22 22 22 22 22 21 22 23 23 23 23 22 21 21 20 20 19 19 18 18 18 17 17 17 17 17 17 16 16 16 16 16 16 15 15 15 15 15
23 22 22 21 21 21 22 22 22 21 21 21 22 22 23 23 23 22 22 21 20 20 19 19 18 18 18 18 17 17 17 17 17 16 16 16 16 16 16 16 15 15 15 15
23 22 21 21 21 22 21 21 22 22 21 21 21 22 23 23 23 23 22 21 20 20 19 18 18 18 18 18 17 17 17 17 17 16 16 16 16 16 16 16 15 15 15 15
22 22 22 22 22 21 22 22 22 21 21 21 21 22 24 23 23 22 22 21 20 20 19 18 18 18 17 17 17 17 17 17 17 17 16 16 16 16 16 16 15 15 15 15
21 22 21 21 21 21 21 21 22 22 22 21 21 22 24 23 23 22 22 21 20 19 19 18 18 18 18 18 18 18 17 17 17 17 16 16 16 16 16 15 15 15 15 15
21 22 22 21 22 21 21 21 21 22 21 22 22 23 24 23 23 22 21 21 20 20 19 19 18 18 18 18 18 18 18 17 17 17 16 16 16 16 16 15 15 15 15 15
21 22 22 22 21 21 21 21 21 21 22 22 22 23 23 23 23 22 21 20 20 20 19 19 18 18 18 18 18 18 18 17 17 17 16 16 16 16 16 16 15 15 15 15
21 21 21 21 21 21 21 21 21 21 22 22 22 23 24 23 22 21 21 20 20 20 19 19 19 18 18 18 18 18 18 17 17 17 16 16 16 16 16 16 15 15 15 15
21 21 21 21 21 21 21 22 21 21 22 22 22 23 23 23 22 21 21 20 20 19 19 19 19 18 18 18 18 18 18 17 17 17 17 16 16 16 16 16 16 16 15 15
20 21 21 20 20 20 22 22 22 22 22 23 23 23 22 22 21 20 20 20 19 19 19 18 18 18 18 18 18 18 18 17 17 17 17 17 16 16 16 16 16 16 15 15
20 20 20 20 20 20 21 21 21 21 22 23 22 22 22 21 21 21 20 19 19 19 19 18 18 18 18 18 18 18 17 17 17 17 17 17 16 16 16 16 16 16 15 15
19 20 20 19 19 19 21 21 20 21 21 22 22 22 21 21 23 22 20 19 19 18 18 18 19 18 18 18 18 17 17 17 17 17 17 16 16 16 16 16 16 15 15 15
19 19 19 19 19 20 21 20 20 20 22 21 21 21 21 21 22 21 19 19 19 18 19 19 19 18 18 18 18 17 17 17 17 17 17 16 16 16 16 16 15 15 15 15
19 19 19 19 19 20 20 20 20 21 21 20 20 20 20 20 19 19 19 19 19 18 19 19 18 18 18 18 18 18 17 17 17 17 17 16 16 16 16 16 15 15 15 15
20 20 20 20 20 20 19 19 19 19 19 19 19 19 19 18 18 18 18 18 18 18 18 18 18 18 18 18 18 17 17 17 17 17 16 16 16 16 16 15 15 15 15 14
19 18 19 19 20 19 18 18 18 18 18 18 18 18 18 18 18 17 18 18 18 18 18 18 18 18 17 17 17 17 17 17 16 16 16 16 16 15 15 15 15 14 14 14
18 18 18 19 19 18 18 17 17 17 17 18 18 18 17 17 17 17 17 18 18 18 18 18 17 17 17 17 17 17 17 16 16 16 15 15 15 15 15 15 14 14 14 14
17 18 18 19 19 19 18 17 17 17 17 17 17 17 17 17 17 17 17 17 17 17 17 17 17 17 17 16 17 16 16 16 16 15 15 15 15 15 14 14 14 14 13 13
Wind_Speed
1 3 3 2 1 1 1 2 2 1 1 3 4 3 5 6 7 7 7 8 8 7 7 7 7 7 7 6 5 6 6 5 4 3 3 3 3 3 3 4 5 5 4 4
3 2 2 2 2 3 3 3 1 1 0 2 2 3 4 7 9 9 9 9 9 8 8 8 8 8 8 7 6 6 5 5 4 3 2 2 3 3 3 3 4 4 4 3
3 2 2 4 4 4 3 3 2 1 1 2 3 3 5 5 6 7 8 8 8 9 9 9 9 9 9 8 8 6 6 6 4 4 3 3 3 3 3 3 3 4 4 4
2 2 3 4 3 3 3 1 2 3 3 2 3 2 3 5 6 7 8 9 8 8 9 9 9 9 9 9 8 7 7 6 5 5 4 3 3 3 3 2 3 4 4 3
2 2 3 3 2 3 1 1 2 3 4 4 4 4 1 5 5 6 8 9 9 9 9 10 10 9 9 9 8 7 7 6 6 5 4 3 3 3 3 3 4 3 3 3
2 1 1 1 1 2 3 3 3 3 4 4 2 3 1 2 4 5 6 8 9 9 9 9 9 9 9 8 8 7 7 7 6 5 5 4 4 3 4 3 3 3 3 3
3 3 3 2 3 4 5 4 3 4 3 1 1 3 2 0 2 4 6 7 8 9 10 10 10 10 10 10 9 9 9 8 7 6 5 5 4 4 4 4 4 3 3 3
4 4 4 3 4 3 5 5 3 2 2 1 2 3 0 1 2 3 4 5 7 9 9 10 10 10 10 10 10 10 9 8 7 6 5 5 5 4 3 3 3 3 2 2
4 2 3 2 2 4 4 4 3 3 2 3 2 1 1 1 1 2 3 5 7 8 9 10 10 10 10 10 11 10 10 9 8 8 6 6 5 5 4 4 3 3 3 3
3 3 3 3 3 2 3 3 4 4 2 2 1 2 0 1 1 2 4 5 6 8 9 9 9 10 10 10 10 10 9 9 9 8 7 6 6 5 5 4 4 4 3 3
5 4 3 4 5 5 4 5 4 3 3 3 1 1 2 0 1 3 3 5 6 8 8 9 9 9 9 9 10 10 9 9 9 9 8 7 6 6 6 5 4 4 4 4
4 4 4 4 2 3 6 6 6 5 3 3 3 0 2 0 1 3 3 4 6 7 8 8 8 9 9 10 10 10 9 9 8 8 8 7 7 6 6 5 5 5 4 4
4 4 5 4 5 5 5 6 7 6 5 5 4 1 3 1 1 3 4 4 5 7 7 8 8 9 9 10 9 9 9 9 8 8 8 8 7 7 6 6 5 5 5 5
4 5 6 5 2 3 6 7 8 8 6 6 6 5 2 1 2 3 4 5 6 7 8 8 8 9 9 9 9 9 9 9 8 9 8 8 8 7 6 6 5 5 5 5
4 6 6 5 4 5 6 7 9 11 10 8 7 8 6 4 4 4 5 5 6 7 8 8 8 8 9 9 9 9 9 9 9 9 9 8 8 7 7 6 6 5 5 5
5 5 6 7 6 7 9 9 10 11 11 11 11 10 6 3 3 4 5 6 7 7 8 8 9 8 9 10 9 9 10 10 10 10 9 8 8 7 7 6 6 5 5 5
6 6 6 7 5 7 9 9 10 10 9 10 10 7 4 4 4 5 6 7 7 7 7 8 8 8 8 9 9 9 9 10 10 10 9 9 8 8 8 7 7 6 6 5
8 8 5 5 5 9 3 1 6 10 11 10 9 6 6 6 4 5 5 6 6 7 7 7 7 7 7 7 8 8 9 10 10 10 9 9 9 8 8 7 7 7 6 6
9 8 6 5 7 7 5 4 5 8 9 8 9 7 5 3 4 5 5 6 6 6 6 6 6 6 7 7 8 9 9 9 9 10 10 10 9 9 8 8 8 7 6 6
8 9 8 7 8 6 2 1 2 6 7 4 6 6 5 6 6 4 4 4 4 4 4 4 5 5 6 7 8 9 9 9 9 9 9 9 9 9 8 8 7 6 6 5
9 9 11 11 9 7 2 1 3 6 2 1 4 5 7 7 4 1 4 4 3 3 4 4 5 5 6 7 8 9 8 8 7 7 7 8 8 8 8 7 6 6 6 5
10 8 10 9 9 7 2 4 5 4 4 3 3 4 4 4 3 2 3 3 3 4 4 5 4 4 5 7 8 9 8 7 6 6 7 7 7 6 6 7 6 6 6 6
9 8 6 7 6 1 3 4 4 4 5 4 4 3 3 4 4 3 3 3 4 4 5 5 5 5 5 6 7 8 7 7 7 7 7 6 7 6 6 7 7 6 6 5
6 4 6 6 6 5 4 5 5 5 5 5 4 3 3 4 4 4 3 3 4 5 5 5 5 5 5 6 6 6 6 7 7 7 7 7 7 6 6 4 4 5 5 5
5 5 7 9 7 4 4 4 5 5 5 4 3 3 3 3 4 4 3 4 4 4 5 5 5 5 5 6 5 5 6 7 7 7 7 7 6 6 6 5 3 4 3 3
7 7 8 8 6 6 5 4 4 4 4 4 3 2 2 3 4 4 3 3 4 5 5 5 5 5 5 6 6 5 6 7 7 7 7 6 6 6 6 6 5 6 4 6
Wind_Direction
172 197 180 165 216 307 197 205 201 124 153 233 232 220 196 186 192 194 195 197 194 192 189 183 183 185 182 175 167 157 158 152 139 131 133 112 104 100 89 74 67 72 78 85
181 184 134 155 172 188 207 217 200 131 134 259 252 244 210 202 206 205 206 203 197 192 188 181 187 188 191 181 175 170 166 162 150 137 132 111 105 104 93 89 78 71 79 83
192 102 149 184 184 196 213 246 238 231 235 225 270 234 200 200 208 210 213 212 204 198 196 187 191 190 190 187 182 180 176 167 159 148 134 127 121 129 123 108 88 71 77 81
180 163 182 189 196 231 235 243 225 219 241 241 260 277 203 190 202 208 211 210 207 200 200 194 192 191 192 190 185 183 178 167 159 157 156 150 152 133 120 120 109 99 84 83
165 167 191 205 223 231 231 174 218 231 252 257 233 264 207 176 208 210 208 208 208 204 199 197 195 192 190 185 184 185 175 166 164 168 164 171 157 134 127 127 118 112 98 83
164 167 250 195 129 167 161 176 181 214 243 253 243 252 265 182 217 211 207 207 207 204 200 199 191 188 184 180 181 182 175 167 167 173 172 176 162 154 146 145 137 134 121 106
177 174 169 180 180 169 208 228 224 215 218 244 146 251 263 303 244 232 222 213 207 199 195 192 188 185 181 179 180 181 177 173 173 176 177 180 177 174 165 160 153 153 139 132
203 187 175 199 230 219 213 238 259 275 278 248 201 248 315 4 279 235 217 204 194 191 190 189 189 186 183 182 183 184 181 179 176 181 180 181 177 179 166 168 161 159 148 137
215 178 140 192 229 234 213 222 266 283 287 270 221 226 248 172 173 163 165 176 183 185 186 187 185 185 184 184 186 186 185 185 181 182 183 184 182 177 169 171 164 153 153 137
228 206 169 165 185 201 263 207 215 241 264 255 242 234 217 153 160 159 163 172 178 179 182 182 182 183 184 185 186 189 191 189 185 185 187 186 187 181 176 173 166 163 157 152
227 218 184 191 216 213 192 204 219 227 255 277 289 98 49 2 192 183 176 172 174 175 177 178 181 182 181 181 182 186 188 187 185 186 188 185 185 184 180 180 174 174 170 170
215 236 222 212 210 280 242 234 223 232 222 238 272 268 87 334 201 187 180 171 170 172 174 174 177 177 178 181 182 185 186 186 185 187 187 185 180 181 185 186 185 183 179 178
190 226 222 203 200 202 224 232 234 242 245 236 244 213 110 120 179 184 181 171 168 171 170 170 174 180 181 182 184 185 185 186 183 184 185 183 182 183 188 192 187 188 187 184
216 230 241 247 274 210 220 222 228 231 237 243 245 267 273 264 225 197 186 180 175 174 173 173 177 183 185 187 187 188 187 185 183 182 186 187 186 186 188 189 189 192 193 193
229 237 239 257 265 250 248 239 229 234 244 251 259 267 278 276 245 215 199 189 181 180 181 182 185 186 187 190 193 191 189 188 187 187 190 191 190 188 187 184 189 191 191 198
232 238 238 242 239 245 252 250 241 241 248 250 257 262 267 263 229 207 200 194 192 190 190 190 191 190 192 194 194 192 192 190 189 191 193 189 189 185 186 186 187 190 192 196
215 230 241 247 242 257 250 239 235 236 237 243 249 256 248 238 232 222 207 201 196 194 193 194 197 196 198 196 191 192 192 188 190 192 189 187 188 187 189 188 185 186 187 187
222 228 238 254 246 246 253 218 245 244 242 242 254 260 245 244 243 221 208 207 207 202 201 200 200 200 201 194 189 189 188 189 190 190 190 190 190 189 189 188 189 192 191 187
222 219 230 240 248 264 254 234 233 240 249 242 245 246 237 233 211 203 201 212 215 211 208 204 202 199 196 190 186 183 185 188 190 192 192 191 190 189 189 190 192 192 191 191
206 216 229 233 244 250 249 162 232 244 246 228 234 232 219 207 220 198 180 198 207 207 203 195 186 187 185 182 179 182 183 187 191 191 193 190 189 189 192 194 193 187 186 189
194 207 223 234 242 253 255 176 198 226 262 333 245 232 219 222 246 186 169 182 190 190 187 174 170 176 178 174 175 181 181 187 187 182 182 181 183 187 189 188 184 180 178 177
208 209 217 226 236 241 163 182 219 277 326 303 269 244 232 233 231 177 161 161 158 158 161 162 160 162 165 170 174 178 182 181 170 166 169 173 175 175 174 172 173 175 171 169
220 223 223 222 235 299 188 233 276 302 292 290 274 260 232 217 206 194 172 155 148 151 152 157 155 150 154 166 174 176 175 167 162 159 161 165 165 164 165 166 167 168 168 173
217 227 226 235 243 257 257 264 278 287 291 293 278 249 225 210 194 186 172 158 149 147 148 151 149 146 147 156 165 169 160 160 159 158 158 158 157 154 151 152 163 167 172 178
223 208 228 238 252 265 258 270 289 300 295 288 268 237 214 200 191 179 171 162 155 149 149 152 153 150 150 154 158 159 156 160 165 161 157 157 153 148 144 141 137 159 161 174
217 220 228 239 243 251 261 279 293 282 278 276 261 234 204 188 183 173 166 160 152 150 150 151 149 148 150 150 150 153 159 164 165 162 158 155 154 154 155 150 132 76 81 90
Height
1536 1535 1535 1535 1535 1536 1537 1539 1541 1541 1541 1542 1542 1542 1544 1547 1549 1550 1551 1553 1554 1556 1559 1560 1562 1563 1565 1566 1568 1569 1570 1570 1571 1571 1572 1572 1572 1572 1572 1572 1572 1571 1571 1571
1535 1536 1536 1537 1537 1538 1538 1540 1541 1541 1541 1541 1541 1541 1541 1544 1546 1547 1549 1550 1552 1554 1557 1559 1561 1562 1564 1566 1567 1568 1570 1570 1571 1571 1572 1572 1572 1573 1573 1573 1572 1572 1572 1572
1535 1537 1537 1537 1538 1539 1540 1540 1541 1542 1542 1540 1541 1541 1539 1541 1543 1546 1547 1548 1550 1552 1554 1557 1559 1561 1563 1564 1566 1568 1569 1570 1571 1571 1572 1572 1573 1573 1574 1574 1573 1573 1573 1573
1536 1537 1538 1537 1538 1538 1541 1539 1540 1542 1543 1541 1542 1544 1537 1537 1540 1542 1544 1546 1548 1550 1552 1555 1557 1559 1561 1563 1565 1567 1568 1570 1570 1571 1572 1573 1573 1574 1574 1575 1574 1574 1574 1574
1536 1537 1537 1538 1539 1539 1539 1539 1540 1540 1541 1541 1539 1542 1536 1534 1537 1537 1540 1542 1545 1548 1550 1553 1555 1557 1560 1562 1564 1566 1567 1568 1570 1571 1572 1573 1574 1574 1575 1575 1575 1575 1575 1575
1536 1538 1538 1538 1539 1539 1540 1540 1540 1540 1539 1545 1538 1541 1538 1531 1532 1533 1536 1539 1542 1545 1548 1551 1553 1555 1558 1560 1562 1564 1566 1567 1569 1570 1571 1572 1573 1574 1575 1575 1576 1576 1576 1576
1537 1537 1538 1539 1539 1540 1539 1541 1546 1546 1546 1543 1536 1539 1535 1527 1528 1531 1533 1536 1539 1542 1545 1548 1551 1553 1556 1558 1560 1563 1565 1567 1568 1570 1571 1572 1573 1574 1575 1576 1576 1577 1577 1577
1537 1539 1536 1537 1537 1537 1537 1538 1546 1551 1547 1540 1538 1538 1529 1527 1529 1530 1532 1534 1537 1540 1543 1546 1549 1551 1554 1556 1558 1561 1563 1566 1567 1569 1571 1572 1573 1574 1575 1575 1576 1577 1577 1577
1533 1537 1536 1537 1537 1536 1536 1536 1535 1539 1541 1543 1536 1532 1527 1526 1528 1529 1531 1533 1535 1538 1541 1544 1547 1549 1552 1554 1557 1560 1562 1564 1566 1568 1570 1571 1573 1574 1574 1575 1576 1577 1577 1577
1529 1536 1535 1537 1537 1537 1535 1533 1537 1540 1547 1547 1540 1535 1531 1526 1527 1528 1530 1532 1534 1537 1540 1543 1545 1548 1550 1553 1555 1558 1561 1563 1565 1567 1569 1570 1571 1573 1574 1575 1576 1576 1577 1577
1529 1533 1536 1536 1535 1534 1536 1537 1535 1537 1539 1545 1546 1538 1523 1524 1525 1527 1529 1531 1533 1536 1538 1541 1544 1547 1549 1551 1554 1556 1559 1561 1563 1565 1567 1569 1570 1571 1573 1574 1575 1576 1577 1577
1529 1529 1533 1532 1532 1533 1532 1531 1532 1539 1540 1539 1542 1536 1521 1524 1525 1527 1528 1531 1533 1535 1538 1540 1543 1545 1548 1550 1553 1555 1558 1560 1562 1564 1566 1567 1569 1570 1571 1573 1574 1575 1576 1577
1530 1531 1536 1537 1537 1535 1533 1531 1530 1531 1533 1536 1539 1533 1521 1523 1525 1526 1528 1530 1532 1535 1537 1539 1541 1544 1546 1548 1551 1553 1556 1558 1560 1562 1564 1566 1567 1568 1570 1572 1573 1574 1575 1576
1531 1528 1531 1536 1531 1529 1531 1532 1531 1531 1534 1533 1531 1526 1521 1521 1524 1526 1528 1530 1532 1534 1536 1538 1540 1542 1544 1547 1549 1552 1554 1556 1558 1560 1562 1563 1565 1567 1568 1570 1571 1573 1574 1575
1529 1527 1526 1526 1526 1528 1528 1529 1530 1530 1526 1528 1525 1524 1520 1520 1523 1525 1527 1529 1531 1532 1534 1536 1538 1540 1542 1544 1547 1549 1551 1554 1556 1558 1560 1562 1564 1565 1567 1568 1569 1571 1572 1573
1528 1527 1526 1527 1526 1526 1527 1525 1525 1526 1524 1523 1522 1521 1517 1520 1522 1523 1525 1527 1529 1530 1532 1534 1536 1538 1540 1542 1544 1546 1549 1551 1553 1555 1557 1559 1561 1563 1564 1566 1567 1569 1570 1571
1527 1526 1528 1527 1524 1526 1526 1520 1521 1521 1519 1520 1520 1517 1517 1518 1520 1522 1523 1525 1527 1528 1530 1532 1534 1536 1538 1540 1542 1544 1546 1548 1550 1553 1555 1557 1559 1560 1562 1563 1565 1566 1568 1569
1526 1525 1526 1527 1528 1534 1518 1515 1516 1517 1516 1515 1515 1515 1516 1518 1519 1521 1522 1523 1525 1526 1528 1530 1532 1533 1535 1537 1539 1541 1544 1546 1548 1550 1552 1554 1556 1558 1560 1561 1563 1564 1566 1567
1524 1525 1527 1527 1528 1522 1516 1515 1516 1517 1514 1512 1513 1514 1516 1517 1518 1519 1520 1521 1523 1524 1526 1527 1529 1531 1533 1535 1537 1539 1541 1543 1545 1547 1549 1551 1553 1555 1557 1559 1560 1562 1563 1564
1524 1523 1525 1527 1530 1528 1516 1513 1515 1517 1514 1510 1511 1512 1514 1515 1513 1514 1517 1519 1520 1522 1523 1525 1526 1528 1530 1532 1534 1536 1538 1540 1542 1544 1546 1549 1551 1553 1555 1556 1558 1560 1561 1562
1521 1522 1523 1523 1524 1515 1511 1513 1515 1519 1512 1510 1510 1511 1512 1512 1512 1514 1516 1517 1519 1520 1521 1522 1524 1526 1528 1530 1532 1534 1536 1538 1540 1542 1544 1546 1548 1550 1552 1554 1555 1557 1558 1559
1513 1516 1518 1519 1522 1518 1511 1512 1513 1510 1510 1509 1509 1510 1511 1511 1512 1513 1514 1516 1517 1518 1519 1521 1522 1524 1526 1528 1530 1532 1534 1535 1538 1540 1542 1544 1546 1548 1549 1551 1553 1554 1555 1557
1509 1509 1509 1510 1511 1508 1510 1510 1510 1510 1510 1509 1509 1509 1509 1509 1511 1512 1513 1514 1515 1516 1517 1519 1521 1522 1524 1526 1528 1530 1532 1534 1536 1538 1539 1541 1543 1545 1547 1549 1550 1551 1553 1554
1508 1510 1509 1508 1506 1508 1509 1509 1509 1509 1508 1507 1507 1507 1508 1508 1509 1511 1511 1512 1514 1515 1516 1518 1519 1521 1523 1524 1526 1528 1530 1532 1534 1535 1537 1539 1541 1543 1544 1546 1547 1549 1550 1551
1506 1508 1507 1505 1506 1507 1507 1507 1507 1506 1506 1506 1505 1506 1506 1507 1508 1509 1510 1511 1512 1514 1515 1516 1518 1519 1521 1523 1524 1526 1528 1530 1532 1534 1535 1537 1539 1540 1541 1543 1544 1546 1547 1548
1505 1505 1504 1502 1504 1505 1504 1505 1505 1505 1504 1504 1504 1504 1505 1506 1506 1507 1509 1510 1511 1512 1514 1515 1516 1518 1520 1521 1523 1524 1526 1528 1530 1532 1534 1535 1536 1538 1539 1541 1542 1543 1545 1546